Location: Unspecified
(0.0000°N, 0.0000°E)
Time: 07:48:21
(UTC+00:00)

Amateur Radio Satellites - All Passes

Search period start: 01 August 2014 07:18
Search period end: 02 August 2014 07:18
Location: Unspecified, 0.0000°N, 0.0000°E

Satellite Date Start Highest point End Downlink Frequencies (MHz)
Time Altitude Azimuth
SO-67 01 Aug 07:19:11 07:22:07 26° 281° (W) 07:25:03 435.3500 MHz FM
MaSat-1 01 Aug 07:22:58 07:26:32 23° 256° (WSW) 07:29:44 437.345 MHz
UKube-1 01 Aug 08:23:52 08:27:27 25° 102° (ESE) 08:31:02 145.840 MHz, 145.915 MHz
HO-68 01 Aug 08:48:16 08:55:24 89° 104° (ESE) 09:02:35 435.675 MHz FM
Sapphire 01 Aug 08:56:16 08:58:42 13° 70° (ENE) 09:01:07 437.095 MHz 1200 baud AX-25 AFSK
PANSAT 01 Aug 08:57:22 09:00:21 21° 29° (NNE) 09:03:19 not established
Oscar 11 01 Aug 09:04:51 09:08:57 42° 102° (ESE) 09:13:05 145.825 FM, Beacon 2401.500 USB
PCSat 01 Aug 09:26:53 09:31:45 35° 71° (ENE) 09:36:37 145.825 MHz
FUNcube-1 01 Aug 09:35:40 09:39:30 31° 102° (ESE) 09:43:25 145.950 - 145.970 MHz USB
SO-50 01 Aug 09:49:09 09:53:29 55° 292° (WNW) 09:57:48 436.795 FM
UKube-1 01 Aug 10:01:26 10:03:23 13° 282° (WNW) 10:05:21 145.840 MHz, 145.915 MHz
PANSAT 01 Aug 10:36:43 10:40:29 52° 210° (SSW) 10:44:14 not established
Sapphire 01 Aug 10:36:50 10:41:51 40° 251° (WSW) 10:46:54 437.095 MHz 1200 baud AX-25 AFSK
RS-15 01 Aug 10:43:07 10:54:45 72° 111° (ESE) 11:05:48 29.354 - 29.394 USB, Beacon 29.352 USB
PCSat 01 Aug 11:11:52 11:14:54 15° 250° (WSW) 11:17:57 145.825 MHz
FUNcube-1 01 Aug 11:15:12 11:15:40 10° 281° (W) 11:16:08 145.950 - 145.970 MHz USB
UOSAT-12 01 Aug 11:30:43 11:35:10 80° 292° (WNW) 11:39:41 437.025 FM, 437.400 FM
Uribyol 2 01 Aug 12:39:32 12:40:34 11° 77° (ENE) 12:41:35 436.500 FM
AO-27 01 Aug 12:41:11 12:42:10 11° 77° (ENE) 12:43:09 436.795 MHz FM
AO-Echo 01 Aug 12:49:27 12:52:29 16° 77° (ENE) 12:55:32 ?
Oscar 19 01 Aug 12:58:59 13:03:59 54° 78° (ENE) 13:08:56 437.125 CW, 437.150 USB
RS-15 01 Aug 12:59:55 13:06:41 18° 292° (WNW) 13:13:22 29.354 - 29.394 USB, Beacon 29.352 USB
JAS-1B 01 Aug 13:18:26 13:24:50 27° 73° (ENE) 13:31:58 435.800 - 435.900 CW/SSB
Gurwin Techsat 1B 01 Aug 13:23:02 13:24:25 11° 77° (ENE) 13:25:49 435.225 FM
Oscar 16 01 Aug 13:27:54 13:32:58 62° 258° (WSW) 13:38:00 437.025 USB, Beacon 2401.1428
ITAMSAT 1 01 Aug 13:56:00 14:01:14 83° 257° (WSW) 14:06:27 435.822 SSB
Uribyol 2 01 Aug 14:14:47 14:19:45 45° 257° (WSW) 14:24:42 436.500 FM
AO-27 01 Aug 14:16:25 14:21:24 46° 257° (WSW) 14:26:22 436.795 MHz FM
AO-Echo 01 Aug 14:26:18 14:30:56 33° 258° (WSW) 14:35:39 ?
TMSAT-1 01 Aug 14:32:11 14:37:24 57° 78° (ENE) 14:42:34 436.925 FM
AO-7 01 Aug 14:36:48 14:41:06 15° 73° (ENE) 14:45:23 29.400 - 29.500 MHz
AO-40 01 Aug 14:37:23 14:44:33 52° 4° (N) 14:50:35 Beacon 2401.320
OPAL 01 Aug 14:38:39 14:40:37 12° 105° (ESE) 14:42:36 ?
KITSAT 1 01 Aug 14:39:20 14:46:06 30° 70° (ENE) 14:52:50 435.175 FM
Uosat F 01 Aug 14:50:54 14:52:49 12° 77° (ENE) 14:54:43 435.120 FM
Gurwin Techsat 1B 01 Aug 14:59:03 15:04:06 45° 257° (WSW) 15:09:08 435.225 FM
JAS-1B 01 Aug 15:07:43 15:14:48 42° 258° (WSW) 15:23:05 435.800 - 435.900 CW/SSB
Oscar 10/S400 01 Aug 16:06:53 16:46:51 84° 152° (SSE) 17:06:09 145.825 - 145.975 CW/USB, Beacon 145.810 USB
OPAL 01 Aug 16:14:21 16:19:11 41° 284° (WNW) 16:24:05 ?
AO-7 01 Aug 16:25:11 16:33:27 67° 254° (WSW) 16:41:43 29.400 - 29.500 MHz
Uosat F 01 Aug 16:26:40 16:31:19 38° 257° (WSW) 16:35:58 435.120 FM
JAS-2 01 Aug 16:28:47 16:32:17 14° 76° (ENE) 16:35:45 435.800 - 435.900 CW/SSB, 435.910 FM
Saudisat 1A 01 Aug 16:30:33 16:34:55 86° 68° (ENE) 16:39:17 436.775 MHz
KITSAT 1 01 Aug 16:34:05 16:41:08 34° 250° (WSW) 16:48:15 435.175 FM
Hamsat 01 Aug 18:01:24 18:05:22 42° 259° (WSW) 18:09:18 145.90 MHz
JAS-2 01 Aug 18:09:07 18:16:53 72° 257° (WSW) 18:24:37 435.800 - 435.900 CW/SSB, 435.910 FM
STRAND 1 01 Aug 18:43:34 18:48:32 57° 283° (WNW) 18:53:32 ?
ISS 01 Aug 18:52:46 18:56:04 80° 306° (NW) 18:59:22 145.800 FM
SO-67 01 Aug 19:03:42 19:07:04 48° 259° (W) 19:10:24 435.3500 MHz FM
MaSat-1 01 Aug 19:15:23 19:17:45 19° 291° (WNW) 19:20:23 437.345 MHz
SO-50 01 Aug 20:23:52 20:26:29 14° 68° (ENE) 20:29:06 436.795 FM
UKube-1 01 Aug 20:33:21 20:37:21 35° 78° (ENE) 20:41:19 145.840 MHz, 145.915 MHz
HO-68 01 Aug 20:39:54 20:47:06 77° 75° (ENE) 20:54:14 435.675 MHz FM
PANSAT 01 Aug 20:44:50 20:47:53 22° 151° (SSE) 20:50:57 not established
Oscar 11 01 Aug 21:14:02 21:18:17 58° 78° (ENE) 21:22:30 145.825 FM, Beacon 2401.500 USB
Sapphire 01 Aug 21:30:05 21:35:08 41° 109° (ESE) 21:40:10 437.095 MHz 1200 baud AX-25 AFSK
FUNcube-1 01 Aug 21:46:26 21:50:43 46° 79° (ENE) 21:54:51 145.950 - 145.970 MHz USB
SO-50 01 Aug 22:02:33 22:06:49 31° 248° (WSW) 22:11:05 436.795 FM
PCSat 01 Aug 22:02:42 22:08:04 74° 289° (WNW) 22:13:26 145.825 MHz
PANSAT 01 Aug 22:24:17 22:28:01 49° 330° (NNW) 22:31:46 not established
RS-15 01 Aug 22:24:22 22:35:33 60° 70° (ENE) 22:47:15 29.354 - 29.394 USB, Beacon 29.352 USB
Sapphire 01 Aug 23:16:04 23:18:18 13° 290° (WNW) 23:20:31 437.095 MHz 1200 baud AX-25 AFSK
UOSAT-12 01 Aug 23:41:16 23:45:38 44° 248° (WSW) 23:49:57 437.025 FM, 437.400 FM
Oscar 16 02 Aug 00:23:54 00:27:43 21° 103° (ESE) 00:31:32 437.025 USB, Beacon 2401.1428
RS-15 02 Aug 00:39:09 00:47:43 24° 247° (WSW) 00:56:38 29.354 - 29.394 USB, Beacon 29.352 USB
ITAMSAT 1 02 Aug 00:53:58 00:57:03 16° 103° (ESE) 01:00:09 435.822 SSB
Uribyol 2 02 Aug 01:10:59 01:15:24 29° 103° (ESE) 01:19:50 436.500 FM
AO-27 02 Aug 01:12:56 01:17:21 29° 103° (ESE) 01:21:46 436.795 MHz FM
AO-Echo 02 Aug 01:17:41 01:21:54 32° 102° (ESE) 01:26:04 ?
JAS-1B 02 Aug 01:31:05 01:37:11 28° 100° (E) 01:42:32 435.800 - 435.900 CW/SSB
Oscar 19 02 Aug 01:32:38 01:37:42 58° 282° (WNW) 01:42:49 437.125 CW, 437.150 USB
Gurwin Techsat 1B 02 Aug 01:58:11 02:02:54 33° 103° (ESE) 02:07:36 435.225 FM
Oscar 16 02 Aug 02:02:41 02:06:47 24° 283° (WNW) 02:10:54 437.025 USB, Beacon 2401.1428
ITAMSAT 1 02 Aug 02:31:48 02:36:16 30° 283° (WNW) 02:40:46 435.822 SSB
KITSAT 1 02 Aug 02:46:45 02:54:09 39° 110° (ESE) 03:01:31 435.175 FM
Uribyol 2 02 Aug 02:51:22 02:54:36 17° 283° (WNW) 02:57:52 436.500 FM
AO-27 02 Aug 02:53:20 02:56:35 17° 283° (WNW) 02:59:51 436.795 MHz FM
AO-Echo 02 Aug 02:58:29 03:00:24 12° 283° (WNW) 03:02:18 ?
AO-7 02 Aug 03:00:50 03:07:23 26° 107° (ESE) 03:13:55 29.400 - 29.500 MHz
OPAL 02 Aug 03:08:16 03:12:29 28° 76° (ENE) 03:16:41 ?
TMSAT-1 02 Aug 03:10:26 03:15:30 49° 282° (WNW) 03:20:36 436.925 FM
Uosat F 02 Aug 03:18:16 03:22:30 28° 103° (ESE) 03:26:45 435.120 FM
JAS-1B 02 Aug 03:21:13 03:27:30 28° 287° (WNW) 03:33:01 435.800 - 435.900 CW/SSB
Gurwin Techsat 1B 02 Aug 03:39:32 03:42:35 16° 283° (WNW) 03:45:39 435.225 FM
Saudisat 1A 02 Aug 04:36:47 04:41:07 59° 292° (WNW) 04:45:26 436.775 MHz
KITSAT 1 02 Aug 04:42:45 04:49:13 26° 290° (WNW) 04:55:41 435.175 FM
OPAL 02 Aug 04:48:05 04:51:06 16° 255° (WSW) 04:54:06 ?
AO-7 02 Aug 04:52:13 04:59:48 41° 286° (WNW) 05:07:25 29.400 - 29.500 MHz
Uosat F 02 Aug 04:58:01 05:01:01 16° 283° (WNW) 05:04:02 435.120 FM
MaSat-1 02 Aug 05:32:45 05:35:16 15° 69° (ENE) 05:37:37 437.345 MHz
STRAND 1 02 Aug 05:38:35 05:42:28 22° 77° (ENE) 05:46:19 ?
JAS-2 02 Aug 05:44:15 05:49:21 60° 102° (ESE) 05:54:30 435.800 - 435.900 CW/SSB, 435.910 FM
Hamsat 02 Aug 06:08:39 06:12:35 34° 281° (WNW) 06:16:34 145.90 MHz
ISS 02 Aug 06:28:21 06:31:39 61° 55° (NE) 06:34:57 145.800 FM
SO-67 02 Aug 06:48:25 06:51:52 85° 100° (E) 06:55:21 435.3500 MHz FM
MaSat-1 02 Aug 07:08:50 07:12:20 22° 256° (WSW) 07:15:29 437.345 MHz
